Regional Weather Roundup
Issued by NWS Raleigh/Durham, NC

Current Version | Previous Version | Text Only | Print | Product List | Glossary On
Versions: 1 2 3 4 5 6 7 8 9 10 11 12 13 14 15 16 17 18 19 20 21 22 23 24 25 26 27 28 29 30 31 32 33 34 35 36 37 38 39 40 41 42 43 44 45 46 47 48 49 50
000
ASUS42 KRAH 050510
RWRRAH
NORTH CAROLINA WEATHER ROUNDUP
NATIONAL WEATHER SERVICE RALEIGH NC
100 AM EDT SAT SEP 05 2015

NOTE: "FAIR" INDICATES FEW OR NO CLOUDS BELOW 12,000 FEET WITH NO
SIGNIFICANT WEATHER AND/OR OBSTRUCTIONS TO VISIBILITY.

NCZ001-053-055-056-065-067-050600-
WESTERN NORTH CAROLINA

CITY           SKY/WX    TMP DP  RH WIND       PRES   REMARKS
ASHEVILLE      PTCLDY    68  63  84 CALM      30.18F
JEFFERSON      PTCLDY    62  62 100 W5        30.23S FOG
MORGANTON      MOCLDY    67  66  99 CALM      30.19R FOG
HICKORY        MOCLDY    68  65  90 CALM      30.14R
RUTHERFORDTON  PTCLDY    69  65  85 NE5       30.14R
MOUNT AIRY     PTCLDY    66  64  91 CALM      30.16R FOG
BOONE          MOCLDY    60  60 100 CALM      30.25R
$$

NCZ021-022-025-041-071-084-088-050600-
CENTRAL NORTH CAROLINA

CITY           SKY/WX    TMP DP  RH WIND       PRES   REMARKS
CHARLOTTE      CLOUDY    73  65  75 NW6       30.12R
GREENSBORO     MOCLDY    70  66  87 NE6       30.11S
WINSTON-SALEM  MOCLDY    69  64  84 NE7       30.13S
RALEIGH-DURHAM PTCLDY    72  68  87 NE6       30.09R
FORT BRAGG     PTCLDY    74  69  83 CALM      30.05R
FAYETTEVILLE   PTCLDY    74  69  85 NE5       30.05R
BURLINGTON     PTCLDY    71  70  96 N5        30.11R
LAURINBURG     PTCLDY   N/A N/A N/A CALM      30.06F HAZE
$$

NCZ011-015-027-028-043-044-047-080-103-050600-
NORTHEASTERN NORTH CAROLINA

CITY           SKY/WX    TMP DP  RH WIND       PRES   REMARKS
ROCKY MT-WILSO CLEAR     73  70  90 NE7       30.07S FOG
GREENVILLE     CLEAR     72  72 100 N5        30.07S FOG
WASHINGTON     CLEAR     72  70  94 NE5       30.04F FOG
ELIZABETH CITY PTCLDY    76  72  87 N7        30.06R
MANTEO         MOCLDY    78  71  80 NE13      30.03F
CAPE HATTERAS  MOCLDY    80  72  76 NE8G17    30.01R
$$

NCZ078-087-090-091-093-098-101-050600-
SOUTHEASTERN NORTH CAROLINA

CITY           SKY/WX    TMP DP  RH WIND       PRES   REMARKS
LUMBERTON      PTCLDY    72  69  90 CALM      30.04S
GOLDSBORO      PTCLDY    71  70  95 N3        30.04R
KINSTON        PTCLDY    72  70  94 N3        30.05S FOG
KENANSVILLE      N/A     70  69  95 CALM      30.05S FOG
NEW BERN       CLEAR     74  71  91 N6        30.04S FOG
CHERRY POINT   PTCLDY    76  73  91 N9        30.03S
BEAUFORT       PTCLDY    75  74  96 N5        30.00S
JACKSONVILLE   PTCLDY    75  71  87 N6        30.03R
WILMINGTON     MOCLDY    73  69  87 CALM      30.02R
$$



USA.gov is the U.S. government's official web portal to all federal, state and local government web resources and services.